Regional Weather Roundup
Issued by NWS Binghamton, NY

Home | Current Version | Previous Version | Text Only | Print | Product List | Glossary On
Versions: 1 2 3 4 5 6 7 8 9 10 11 12 13 14 15 16 17 18 19 20 21 22 23 24 25 26 27 28 29 30 31 32 33 34 35 36 37 38 39 40 41 42 43 44 45 46 47 48 49 50
000
ASUS41 KBGM 210910
RWRBGM

REGIONAL WEATHER ROUNDUP
NATIONAL WEATHER SERVICE BINGHAMTON NY
400 AM EST WED FEB 21 2018

Note: "fair" indicates few or no clouds below 12,000 feet with no
significant weather and/or obstructions to visibility.

* = Station(s) that does not report precipitation, such as rain,
snow, etc, also no thunder or fog.

NYZ009-015>018-022>025-036-037-044>046-055>057-062-211000
...Central New York...

CITY           SKY/WX    TMP DP  RH WIND       PRES   REMARKS
Binghamton     FAIR      56  51  84 SW8       30.20F
Cortland       FAIR      55  52  88 SW9       30.18S
Dansville      FAIR      53  48  83 SE8       30.11F
Elmira         FOG       40  40 100 CALM      30.17F VSB 3/4
Seneca Falls   SUNNY     57  52  82 CALM      30.12F
Ithaca         FAIR      57  52  83 SE10      30.18F
Hornell        PTCLDY    48  46  93 SE6       30.17F
Monticello     LGT RAIN  48  48 100 CALM      30.27F VSB 1/4
Oneonta        CLEAR     55 N/A N/A SW6       30.21F
Penn Yan       FAIR      59  50  72 SW10      30.14S
Rome           FAIR      60  52  74 SW8G17    30.14F
Sidney         CLEAR     48  48 100 CALM      30.21S
Syracuse       FAIR      63  53  70 SW8       30.10F
$$

PAZ038>040-043-044-047-048-072-211000
...Northeast Pennsylvania...

CITY           SKY/WX    TMP DP  RH WIND       PRES   REMARKS
Hazleton       FAIR      55  54  94 SE3       30.29F
Scranton       FAIR      56  53  90 CALM      30.25S
$$
&&
KEY
WCI = Wind Chill Index
VSB = Visibility
HX  = Heat Index
$$



USA.gov is the U.S. government's official web portal to all federal, state and local government web resources and services.